• In Russia
  • List of Countries
  • For 7 days
  • Water Temperature
  • Satellite Maps
  • Weather Map
  • Weather Widgets
  • user-avatar
    Login

    Hourly Weather Baraki Barak

    Today, 18 February, Monday

    Time Temperature Precipitation Wind Pressure Humidity
    00:00 +1°C° 0.3 mm 1 mps 590 mmHg 90%
    01:00 +1°C° 0.3 mm 1 mps 590 mmHg 90%
    02:00 +1°C° 0.3 mm 1 mps 590 mmHg 89%
    03:00 0°C° 0.1 mm 1 mps 589 mmHg 88%
    04:00 0°C° 0.1 mm 1 mps 589 mmHg 87%
    05:00 -3°C° 0.1 mm 2 mps 589 mmHg 87%
    06:00 -4°C° 0 mm 2 mps 589 mmHg 85%
    07:00 -4°C° 0 mm 2 mps 589 mmHg 84%
    08:00 -5°C° 0 mm 2 mps 589 mmHg 83%
    09:00 -3°C° 0 mm 2 mps 590 mmHg 82%
    10:00 -2°C° 0 mm 2 mps 590 mmHg 80%
    11:00 -1°C° 0 mm 2 mps 590 mmHg 79%
    12:00 +1°C° 0 mm 2 mps 590 mmHg 79%
    13:00 +1°C° 0 mm 2 mps 589 mmHg 79%
    14:00 +2°C° 0 mm 2 mps 589 mmHg 79%
    15:00 +1°C° 0 mm 2 mps 589 mmHg 79%
    16:00 -1°C° 0 mm 2 mps 589 mmHg 79%
    17:00 -1°C° 0 mm 2 mps 588 mmHg 79%
    18:00 -2°C° 0 mm 2 mps 589 mmHg 80%
    19:00 -4°C° 0 mm 2 mps 589 mmHg 82%
    20:00 -5°C° 0 mm 2 mps 589 mmHg 83%
    21:00 -5°C° 0 mm 2 mps 589 mmHg 82%
    22:00 -4°C° 0 mm 1 mps 590 mmHg 82%
    23:00 -4°C° 0 mm 1 mps 590 mmHg 81%

    Tomorrow, 19 February, Tuesday

    Time Temperature Precipitation Wind Pressure Humidity
    00:00 -6°C° 0 mm 1 mps 590 mmHg 80%
    01:00 -6°C° 0 mm 1 mps 590 mmHg 79%
    02:00 -7°C° 0 mm 1 mps 590 mmHg 78%
    03:00 -7°C° 0 mm 1 mps 589 mmHg 76%
    04:00 -7°C° 0 mm 1 mps 589 mmHg 75%
    05:00 -8°C° 0 mm 1 mps 589 mmHg 74%
    06:00 -8°C° 0 mm 1 mps 589 mmHg 73%
    07:00 -7°C° 0 mm 1 mps 590 mmHg 72%
    08:00 -8°C° 0 mm 2 mps 590 mmHg 71%
    09:00 -4°C° 0 mm 1 mps 591 mmHg 70%
    10:00 -2°C° 0 mm 1 mps 592 mmHg 69%
    11:00 -1°C° 0 mm 1 mps 592 mmHg 68%
    12:00 0°C° 0 mm 1 mps 593 mmHg 71%
    13:00 +1°C° 0 mm 1 mps 593 mmHg 73%
    14:00 +2°C° 0 mm 1 mps 593 mmHg 76%
    15:00 +1°C° 0.1 mm 2 mps 592 mmHg 77%
    16:00 -1°C° 0.1 mm 2 mps 592 mmHg 78%
    17:00 -1°C° 0.1 mm 2 mps 592 mmHg 79%
    18:00 -2°C° 0.9 mm 3 mps 593 mmHg 83%
    19:00 -4°C° 0.9 mm 3 mps 593 mmHg 87%
    20:00 -5°C° 0.9 mm 3 mps 593 mmHg 91%
    21:00 -5°C° 1.4 mm 3 mps 594 mmHg 92%
    22:00 -5°C° 1.4 mm 3 mps 594 mmHg 93%
    23:00 -5°C° 1.4 mm 2 mps 594 mmHg 94%

    Day after tomorrow, 20 February, Wednesday

    Time Temperature Precipitation Wind Pressure Humidity
    00:00 -4°C° 0.9 mm 2 mps 594 mmHg 93%
    01:00 -5°C° 0.9 mm 3 mps 594 mmHg 92%
    02:00 -5°C° 0.9 mm 3 mps 594 mmHg 92%
    03:00 -5°C° 0.8 mm 2 mps 594 mmHg 92%
    04:00 -5°C° 0.8 mm 2 mps 594 mmHg 93%
    05:00 -5°C° 0.8 mm 2 mps 594 mmHg 93%
    06:00 -5°C° 1 mm 2 mps 594 mmHg 93%
    07:00 -5°C° 1 mm 2 mps 594 mmHg 93%
    08:00 -4°C° 1 mm 2 mps 594 mmHg 92%
    09:00 -5°C° 0.6 mm 3 mps 594 mmHg 91%
    10:00 -4°C° 0.6 mm 3 mps 594 mmHg 90%
    11:00 -3°C° 0.6 mm 4 mps 594 mmHg 89%
    12:00 -3°C° 0.9 mm 4 mps 594 mmHg 90%
    13:00 -3°C° 0.9 mm 4 mps 593 mmHg 90%
    14:00 -3°C° 0.9 mm 4 mps 593 mmHg 91%
    15:00 -3°C° 1 mm 4 mps 592 mmHg 91%
    16:00 -4°C° 1 mm 5 mps 591 mmHg 92%
    17:00 -4°C° 1 mm 5 mps 590 mmHg 92%
    18:00 -4°C° 1.4 mm 4 mps 591 mmHg 93%
    19:00 -4°C° 1.4 mm 3 mps 591 mmHg 94%
    20:00 -3°C° 1.4 mm 2 mps 591 mmHg 95%
    21:00 -3°C° 1.6 mm 2 mps 591 mmHg 95%
    22:00 -3°C° 1.6 mm 2 mps 590 mmHg 95%
    23:00 -1°C° 1.6 mm 1 mps 590 mmHg 94%

    21 February, Thursday

    Time Temperature Precipitation Wind Pressure Humidity
    00:00 -1°C° 0.3 mm 1 mps 590 mmHg 93%
    01:00 -1°C° 0.3 mm 1 mps 590 mmHg 91%
    02:00 -1°C° 0.3 mm 1 mps 590 mmHg 89%
    03:00 -1°C° 0.3 mm 1 mps 590 mmHg 89%
    04:00 -1°C° 0.3 mm 1 mps 589 mmHg 89%
    05:00 -3°C° 0.3 mm 2 mps 589 mmHg 90%
    06:00 -3°C° 0.4 mm 2 mps 590 mmHg 90%
    07:00 -3°C° 0.4 mm 2 mps 591 mmHg 91%
    08:00 -2°C° 0.4 mm 2 mps 592 mmHg 92%
    09:00 -2°C° 0.3 mm 2 mps 592 mmHg 91%
    10:00 -1°C° 0.3 mm 2 mps 592 mmHg 90%
    11:00 -1°C° 0.3 mm 2 mps 593 mmHg 90%
    12:00 -1°C° 0.1 mm 3 mps 592 mmHg 88%
    13:00 -1°C° 0.1 mm 3 mps 592 mmHg 87%
    14:00 -1°C° 0.1 mm 3 mps 592 mmHg 85%
    15:00 -1°C° 0.1 mm 3 mps 592 mmHg 84%
    16:00 -2°C° 0.1 mm 2 mps 592 mmHg 83%
    17:00 -3°C° 0.1 mm 2 mps 591 mmHg 82%
    18:00 -4°C° 0.1 mm 2 mps 592 mmHg 84%
    19:00 -6°C° 0.1 mm 2 mps 592 mmHg 85%
    20:00 -7°C° 0.1 mm 2 mps 593 mmHg 87%
    21:00 -7°C° 0 mm 1 mps 593 mmHg 86%
    22:00 -7°C° 0 mm 1 mps 593 mmHg 85%
    23:00 -8°C° 0 mm 1 mps 593 mmHg 84%

    22 February, Friday

    Time Temperature Precipitation Wind Pressure Humidity
    00:00 -8°C° 0 mm 1 mps 593 mmHg 83%
    01:00 -9°C° 0 mm 1 mps 593 mmHg 81%
    02:00 -10°C° 0 mm 1 mps 593 mmHg 80%
    03:00 -10°C° 0 mm 1 mps 592 mmHg 78%
    04:00 -11°C° 0 mm 1 mps 592 mmHg 77%
    05:00 -11°C° 0 mm 1 mps 592 mmHg 76%
    06:00 -11°C° 0 mm 1 mps 593 mmHg 74%
    07:00 -11°C° 0 mm 1 mps 593 mmHg 72%
    08:00 -11°C° 0 mm 1 mps 593 mmHg 70%
    09:00 -9°C° 0 mm 1 mps 594 mmHg 68%
    10:00 -6°C° 0 mm 1 mps 594 mmHg 65%
    11:00 -3°C° 0 mm 1 mps 595 mmHg 63%
    12:00 -2°C° 0 mm 1 mps 595 mmHg 63%
    13:00 -1°C° 0 mm 1 mps 594 mmHg 63%
    14:00 0°C° 0 mm 1 mps 594 mmHg 63%
    15:00 -1°C° 0 mm 1 mps 594 mmHg 66%
    16:00 -2°C° 0 mm 1 mps 593 mmHg 69%
    17:00 -3°C° 0 mm 1 mps 593 mmHg 71%
    18:00 -4°C° 0 mm 1 mps 593 mmHg 71%
    19:00 -7°C° 0 mm 1 mps 593 mmHg 71%
    20:00 -9°C° 0 mm 1 mps 593 mmHg 71%
    21:00 -9°C° 0 mm 1 mps 593 mmHg 69%
    22:00 -10°C° 0 mm 1 mps 593 mmHg 68%
    23:00 -10°C° 0 mm 1 mps 593 mmHg 66%

    23 February, Saturday

    Time Temperature Precipitation Wind Pressure Humidity
    00:00 -10°C° 0 mm 1 mps 593 mmHg 64%
    01:00 -11°C° 0 mm 1 mps 593 mmHg 63%
    02:00 -11°C° 0 mm 1 mps 593 mmHg 61%
    03:00 -11°C° 0 mm 1 mps 593 mmHg 60%
    04:00 -11°C° 0 mm 1 mps 592 mmHg 58%
    05:00 -12°C° 0 mm 1 mps 592 mmHg 57%
    06:00 -11°C° 0 mm 1 mps 592 mmHg 56%
    07:00 -11°C° 0 mm 1 mps 593 mmHg 54%
    08:00 -11°C° 0 mm 1 mps 593 mmHg 53%
    09:00 -8°C° 0 mm 1 mps 594 mmHg 54%
    10:00 -6°C° 0 mm 1 mps 594 mmHg 54%
    11:00 -3°C° 0 mm 1 mps 594 mmHg 55%
    12:00 -2°C° 0 mm 1 mps 594 mmHg 57%
    13:00 -3°C° 0 mm 2 mps 594 mmHg 60%
    14:00 -2°C° 0 mm 2 mps 594 mmHg 62%
    15:00 -3°C° 0 mm 2 mps 593 mmHg 66%
    16:00 -1°C° 0 mm 1 mps 593 mmHg 70%
    17:00 -2°C° 0 mm 1 mps 593 mmHg 73%
    18:00 -4°C° 0 mm 1 mps 593 mmHg 74%
    19:00 -6°C° 0 mm 1 mps 593 mmHg 74%
    20:00 -8°C° 0 mm 1 mps 593 mmHg 75%
    21:00 -8°C° 0 mm 1 mps 593 mmHg 74%
    22:00 -9°C° 0 mm 1 mps 593 mmHg 74%
    23:00 -9°C° 0 mm 1 mps 593 mmHg 73%
    Show more